Salem, IL

7:31 PM CDT on August 25, 2016 (GMT -0500)
Salem-Leckrone

Weather History for KSLO - August, 2012

Change the Weather History Date:

Wednesday, August 8, 2012

  Actual Average Record
Temperature  
Mean Temperature 84 °F -  
Max Temperature 99 °F 88 °F 99 °F (1980)
Min Temperature 70 °F 64 °F 48 °F (1989)
Cooling Degree Days 20    
Growing Degree Days 34 (Base 50)    
Moisture  
Dew Point 53 °F    
Average Humidity 36    
Maximum Humidity 64    
Minimum Humidity 15    
Precipitation  
Precipitation 0.00 in - - ()
Sea Level Pressure  
Sea Level Pressure 29.95 in    
Wind  
Wind Speed 5 mph (WSW)    
Max Wind Speed 20 mph    
Max Gust Speed 24 mph    
Visibility 10 miles    
Events      
Averages and records for this station are not official NWS values.
T = Trace of Precipitation, MM = Missing Value Source: NWS Daily Summary

Daily Weather History Graph

Daily Weather History Graph

Search for Another Location

Airport or City:

Trip Planner

Search our weather history database for the weather conditions in past years. The results will help you decide how hot, cold, wet, or windy it might be!

Date:

Astronomy

Aug. 08, 2012 Rise Set
Actual Time 6:04 AM CDT 7:58 PM CDT
Civil Twilight 5:35 AM CDT 8:26 PM CDT
Nautical Twilight 4:59 AM CDT 9:01 PM CDT
Astronomical Twilight 4:22 AM CDT 9:39 PM CDT
Moon 11:18 PM CDT (8/8) 12:43 PM CDT (8/8)
Length of Visible Light 14h 51m
Length of Day
13h 54m
Waning Gibbous, 60% of the Moon is Illuminated
Aug 8
Waning Gibbous
Aug 9
Last Quarter
Aug 17
New
Aug 24
First Quarter
Aug 31
Full

Hourly Weather History & Observations

Time (CDT) Temp. Heat Index Dew Point Humidity Pressure Visibility Wind Dir Wind Speed Gust Speed Precip Events Conditions
12:15 AM 77.4 °F - 55.2 °F 46% 29.98 in 10.0 mi Calm Calm - N/A   Clear
12:35 AM 76.8 °F - 55.6 °F 48% 29.98 in 10.0 mi SSE 3.5 mph - N/A   Clear
12:55 AM 76.1 °F - 55.6 °F 49% 29.98 in 10.0 mi Calm Calm - N/A   Clear
1:35 AM 76.1 °F - 54.9 °F 48% 29.97 in 10.0 mi Calm Calm - N/A   Clear
1:55 AM 75.4 °F - 55.2 °F 49% 29.97 in 10.0 mi Calm Calm - N/A   Clear
2:35 AM 75.0 °F - 54.7 °F 49% 29.96 in 10.0 mi South 4.6 mph - N/A   Clear
2:55 AM 76.3 °F - 52.5 °F 43% 29.96 in 10.0 mi South 5.8 mph - N/A   Clear
3:15 AM 75.4 °F - 53.4 °F 46% 29.96 in 10.0 mi South 5.8 mph - N/A   Scattered Clouds
3:35 AM 75.7 °F - 53.4 °F 46% 29.96 in 10.0 mi South 4.6 mph - N/A   Scattered Clouds
3:55 AM 74.3 °F - 55.0 °F 51% 29.96 in 10.0 mi South 4.6 mph - N/A   Scattered Clouds
4:56 AM 71.6 °F - 55.4 °F 57% 29.96 in 10.0 mi SSW 4.6 mph - N/A   Scattered Clouds
5:15 AM 71.4 °F - 56.8 °F 60% 29.97 in 10.0 mi SSW 4.6 mph - N/A   Scattered Clouds
5:16 AM 71.6 °F - 57.2 °F 60% 29.97 in 10.0 mi SSW 4.6 mph - N/A   Scattered Clouds
5:55 AM 71.1 °F - 56.3 °F 60% 29.98 in 10.0 mi Calm Calm - N/A   Scattered Clouds
6:35 AM 70.3 °F - 56.7 °F 62% 29.99 in 10.0 mi NNW 3.5 mph - N/A   Scattered Clouds
6:55 AM 71.2 °F - 58.5 °F 64% 29.99 in 10.0 mi Calm Calm - N/A   Scattered Clouds
7:35 AM 76.6 °F - 58.8 °F 54% 29.99 in 10.0 mi Calm Calm - N/A   Scattered Clouds
7:55 AM 79.7 °F - 55.8 °F 44% 29.99 in 10.0 mi South 4.6 mph - N/A   Scattered Clouds
8:15 AM 81.9 °F 81.3 °F 55.6 °F 40% 30.00 in 10.0 mi SW 4.6 mph - N/A   Clear
8:55 AM 83.5 °F 82.2 °F 53.8 °F 36% 30.00 in 10.0 mi SW 4.6 mph - N/A   Clear
9:15 AM 85.1 °F 83.5 °F 53.6 °F 34% 30.00 in 10.0 mi SW 5.8 mph - N/A   Clear
9:35 AM 87.3 °F - 50.7 °F 28% 30.00 in 10.0 mi SW 5.8 mph - N/A   Clear
9:55 AM 89.6 °F - 50.7 °F 26% 29.99 in 10.0 mi SSW 8.1 mph - N/A   Clear
10:15 AM 91.0 °F - 49.3 °F 24% 29.99 in 10.0 mi WSW 8.1 mph - N/A   Clear
10:35 AM 92.8 °F - 48.6 °F 22% 30.00 in 10.0 mi West 10.4 mph - N/A   Clear
10:55 AM 92.7 °F - 49.8 °F 23% 30.00 in 10.0 mi WNW 9.2 mph - N/A   Clear
11:15 AM 93.6 °F - 48.7 °F 22% 30.00 in 10.0 mi West 5.8 mph - N/A   Clear
11:35 AM 94.5 °F - 49.5 °F 22% 30.00 in 10.0 mi WNW 11.5 mph 16.1 mph N/A   Scattered Clouds
11:55 AM 93.7 °F - 48.4 °F 21% 30.00 in 10.0 mi WNW 11.5 mph - N/A   Scattered Clouds
12:15 PM 94.3 °F - 47.8 °F 20% 29.99 in 10.0 mi West 9.2 mph - N/A   Clear
12:35 PM 95.7 °F - 46.8 °F 19% 29.99 in 10.0 mi WSW 6.9 mph 10.4 mph N/A   Clear
12:55 PM 95.5 °F - 46.2 °F 18% 29.98 in 10.0 mi WSW 10.4 mph 18.4 mph N/A   Clear
1:15 PM 96.6 °F - 46.2 °F 18% 29.97 in 10.0 mi WSW 5.8 mph - N/A   Clear
1:35 PM 97.0 °F - 45.9 °F 17% 29.97 in 10.0 mi South 3.5 mph - N/A   Clear
1:55 PM 96.8 °F - 45.9 °F 17% 29.96 in 10.0 mi SW 12.7 mph 16.1 mph N/A   Clear
2:15 PM 97.7 °F - 45.7 °F 17% 29.95 in 10.0 mi West 9.2 mph - N/A   Clear
2:35 PM 98.4 °F - 44.2 °F 16% 29.94 in 10.0 mi SSW 5.8 mph - N/A   Clear
2:55 PM 98.6 °F - 44.2 °F 16% 29.94 in 10.0 mi WSW 6.9 mph - N/A   Clear
3:15 PM 98.4 °F - 44.2 °F 16% 29.93 in 10.0 mi South 6.9 mph - N/A   Clear
3:35 PM 98.8 °F - 45.0 °F 16% 29.92 in 10.0 mi SW 6.9 mph - N/A   Clear
3:55 PM 98.4 °F - 44.1 °F 16% 29.91 in 10.0 mi WNW 6.9 mph - N/A   Clear
4:15 PM 98.6 °F - 44.2 °F 16% 29.91 in 10.0 mi West 9.2 mph 18.4 mph N/A   Clear
4:35 PM 99.0 °F - 43.9 °F 15% 29.90 in 10.0 mi West 9.2 mph - N/A   Clear
4:55 PM 98.8 °F - 44.4 °F 16% 29.89 in 10.0 mi SW 5.8 mph - N/A   Clear
5:15 PM 97.9 °F - 43.5 °F 15% 29.89 in 10.0 mi West 3.5 mph - N/A   Scattered Clouds
5:35 PM 94.1 °F 92.8 °F 56.8 °F 29% 29.89 in 10.0 mi NNW 19.6 mph 24.2 mph N/A   Scattered Clouds
6:15 PM 90.0 °F 88.8 °F 57.7 °F 34% 29.90 in 10.0 mi North 12.7 mph - N/A   Clear
6:35 PM 89.1 °F 88.2 °F 58.6 °F 36% 29.90 in 10.0 mi NNE 9.2 mph - N/A   Clear
6:55 PM 88.7 °F 87.8 °F 58.5 °F 36% 29.90 in 10.0 mi NNE 9.2 mph 17.3 mph N/A   Clear
7:15 PM 88.0 °F 87.1 °F 58.5 °F 37% 29.91 in 10.0 mi NNE 9.2 mph 17.3 mph N/A   Clear
7:35 PM 87.6 °F 86.7 °F 58.5 °F 37% 29.91 in 10.0 mi NE 6.9 mph - N/A   Scattered Clouds
7:55 PM 86.9 °F 86.3 °F 59.0 °F 39% 29.91 in 10.0 mi NE 5.8 mph - N/A   Clear
8:15 PM 85.5 °F 85.2 °F 59.7 °F 42% 29.90 in 10.0 mi NNE 5.8 mph - N/A   Clear
8:35 PM 83.5 °F 83.7 °F 60.6 °F 46% 29.90 in 10.0 mi NE 4.6 mph - N/A   Clear
8:55 PM 84.4 °F 84.0 °F 59.0 °F 42% 29.90 in 10.0 mi ENE 4.6 mph - N/A   Clear
9:15 PM 84.0 °F 83.8 °F 59.0 °F 43% 29.91 in 10.0 mi ENE 5.8 mph - N/A   Clear
9:55 PM 81.9 °F 82.1 °F 59.4 °F 46% 29.90 in 10.0 mi ENE 4.6 mph - N/A   Clear
10:15 PM 81.1 °F 81.6 °F 59.7 °F 48% 29.90 in 10.0 mi East 3.5 mph - N/A   Clear
10:35 PM 80.6 °F 81.2 °F 59.5 °F 49% 29.90 in 10.0 mi East 4.6 mph - N/A   Clear
11:35 PM 78.4 °F - 60.8 °F 55% 29.92 in 10.0 mi Calm Calm - N/A   Clear
11:55 PM 77.5 °F - 61.5 °F 58% 29.92 in 10.0 mi Calm Calm - N/A   Clear